Welcome to the New NWS' Forecast!
Most changes are behind the scenes, but click here for differences you might notice.

Regional Weather Roundup (RWR)

Issued by National Weather Service (NWS)

                            
591 
ASUS45 KPSR 150410
RWRAZ 

ARIZONA HOURLY REGIONAL WEATHER ROUNDUP
NATIONAL WEATHER SERVICE PHOENIX AZ
900 PM MST TUE AUG 14 2018

NOTE: FAIR INDICATES FEW OR NO CLOUDS BELOW 12,000 FEET WITH NO
SIGNIFICANT WEATHER AND/OR OBSTRUCTIONS TO VISIBILITY.

AZZ001>003-036-150500-
NORTHWEST ARIZONA
  
CITY           SKY/WX    TMP DP  RH WIND       PRES   REMARKS
BULLHEAD CITY  CLEAR    104  54  18 S13       29.68R HX 102           
KINGMAN        MOCLDY    84  53  34 E23G31    29.98R                  
$$

AZZ004>008-015-016-018-150500-
NORTH CENTRAL ARIZONA
  
CITY           SKY/WX    TMP DP  RH WIND       PRES   REMARKS
GRAND CANYON   CLOUDY    65  51  60 VRB3      30.24R                  
WILLIAMS       CLOUDY    64  52  63 E7        30.25R                  
PRESCOTT       LGT RAIN  65  59  81 SE16G24   30.17F                  
FLAGSTAFF      CLOUDY    59  53  80 CALM      30.29R                  
PAYSON         RAIN      63  59  88 N14       30.16S VSB<1/4          
PAGE           CLOUDY    83  45  26 SW3       30.01R                  
$$

AZZ009>014-017-150500-
NORTHEAST ARIZONA
  
CITY           SKY/WX    TMP DP  RH WIND       PRES   REMARKS
WINSLOW        LGT RAIN  69  59  70 SW18      30.13S                  
SAINT JOHNS    CLOUDY    72  52  49 SW12      30.13R                  
WINDOW ROCK    CLOUDY    75  44  33 W8        30.20R                  
SHOW LOW       CLOUDY    70  50  49 SE9       30.24R                  
$$

AZZ540-542>544-546-548-150500-
GREATER PHOENIX AREA
  
CITY           SKY/WX    TMP DP  RH WIND       PRES   REMARKS
PHOENIX        MOCLDY    85  71  63 VRB6      29.78R                  
BUCKEYE        CLOUDY    90  61  37 NE36G53   29.80R VSB 1            
LUKE AFB       TSTM      86  63  45 N26G35    29.82R                  
DEER VALLEY    MOCLDY    82  63  52 N17       29.84R                  
SCOTTSDALE     CLOUDY    85  60  42 N20G30    29.85R                  
MESA-GATEWAY   MOCLDY    86  63  45 N17       29.82R                  
CHANDLER       MOCLDY    86  64  48 N21       29.81R                  
$$

AZZ539-553-150500-
SOUTHWEST MARICOPA COUNTY AND PINAL COUNTY
  
CITY           SKY/WX    TMP DP  RH WIND       PRES   REMARKS
CASA GRANDE    PTCLDY    94  63  35 W7        29.81R                  
GILA BEND      FAIR      96  65  35 SW15      29.75R                  
$$

AZZ503-504-507>509-150500-
SOUTHEAST ARIZONA
  
CITY           SKY/WX    TMP DP  RH WIND       PRES   REMARKS
TUCSON         MOCLDY    85  67  54 S6        29.93R                  
DAVIS-MONTHAN  PTCLDY    85  63  47 S9        29.91R                  
NOGALES        CLOUDY    72  65  78 SE7       30.04R                  
SIERRA VISTA   TSTM      72  63  73 W17G25    30.07                   
DOUGLAS        CLOUDY    73  67  81 E6        30.05R                  
SAFFORD        MOCLDY    70  63  78 N20       29.95S                  
$$

AZZ532-150500-
SOUTHWEST ARIZONA
  
CITY           SKY/WX    TMP DP  RH WIND       PRES   REMARKS
YUMA           CLEAR     93  62  35 S8        29.73R                  
$$

CAZ041-043-047-048-061-525>527-560>570-150500-
SOUTHERN CALIFORNIA
  
CITY           SKY/WX    TMP DP  RH WIND       PRES   REMARKS
DOWNTOWN L.A.  CLEAR     73  64  73 CALM      29.85R                  
L.A. AIRPORT   PTCLDY    72  65  78 W12       29.86R                  
SAN DIEGO      PTCLDY    74  65  73 NW6       29.89R                  
BURBANK        CLEAR     72  60  66 SE7       29.86R                  
ONTARIO        CLEAR     76  61  59 W10       29.87R                  
RIVERSIDE      CLEAR     77  58  51 W7        29.87R                  
PALM SPRINGS   CLEAR     96  58  27 NW16      29.73R                  
EL CENTRO NAS  PTCLDY    94  61  33 SE10      29.70R                  
IMPERIAL       CLEAR     96  60  30 SE15      29.67R                  
BLYTHE           N/A    N/A N/A N/A MISG      29.71R                  
NEEDLES        CLEAR    105  57  20 S14       29.71R HX 104           
$$

NVZ020-UTZ003-150500-
SOUTHERN NEVADA-UTAH
  
CITY           SKY/WX    TMP DP  RH WIND       PRES   REMARKS
LAS VEGAS      PTCLDY    99  46  16 S6        29.78R                  
SALT LAKE CITY MOCLDY    82  36  19 S6        29.95R                  
$$

NMZ009-TXZ055-150500-
NEW MEXICO-WEST TEXAS
  
CITY           SKY/WX    TMP DP  RH WIND       PRES   REMARKS
ALBUQUERQUE    MOCLDY    82  40  22 CALM      30.06R                  
EL PASO        PTCLDY    86  46  24 S6        29.96R                  
$$


........................KEY........................
SKY/WX - SKY CONDITION/WEATHER
TMP    - TEMPERATURE IN FAHRENHEIT
DP     - DEW POINT IN FAHRENHEIT
RH     - RELATIVE HUMIDITY IN PERCENT
WIND   - DIRECTION AND SPEED IN MILES PER HOUR (MPH)
VRB    - VARIABLE WIND DIRECTION
PRES   - MEAN SEA LEVEL PRESSURE IN INCHES OF MERCURY
         F - FALLING PRESSURE   R - RISING PRESSURE
         S - STEADY PRESSURE
VSB    - VISIBILITY IN MILES
HX     - HEAT INDEX IN FAHRENHEIT
WCI    - WIND CHILL INDEX IN FAHRENHEIT
TC     - TEMPERATURE IN CELSIUS WHICH IS ALSO KNOWN AS
         TEMPERATURE IN CENTIGRADE
AFB    - AIR FORCE BASE
         LUKE AFB IS LUKE AIR FORCE BASE
         DAVIS-MONTHAN IS DAVIS-MONTHAN AIR FORCE BASE
NAS    - NAVAL AIR STATION
         EL CENTRO NAS IS EL CENTRO NAVAL AIR STATION
N/A    - NOT AVAILABLE